Time,TemperatureF,DewpointF,PressureIn,WindDirection,WindDirectionDegrees,WindSpeedMPH,WindSpeedGustMPH,Humidity,HourlyPrecipIn,Conditions,Clouds,dailyrainin,SoftwareType,DateUTC
2013-03-15 00:07:00,31.8,24.0,30.18,West,265,0.0,1.0,74,0.00,,,0.00,weatherlink.com 1.10,2013-03-15 04:07:00,
2013-03-15 00:22:00,31.5,24.0,30.17,West,263,0.0,2.0,74,0.00,,,0.00,weatherlink.com 1.10,2013-03-15 04:22:00,
2013-03-15 00:37:00,30.8,24.0,30.17,NE,41,0.0,1.0,77,0.00,,,0.00,weatherlink.com 1.10,2013-03-15 04:37:00,
2013-03-15 00:52:00,30.5,25.0,30.18,North,8,0.0,1.0,79,0.00,,,0.00,weatherlink.com 1.10,2013-03-15 04:52:00,
2013-03-15 01:07:00,30.6,25.0,30.16,West,264,0.0,1.0,79,0.00,,,0.00,weatherlink.com 1.10,2013-03-15 05:07:00,
2013-03-15 01:22:00,30.7,25.0,30.15,WNW,288,0.0,2.0,80,0.00,,,0.00,weatherlink.com 1.10,2013-03-15 05:22:00,
2013-03-15 01:37:00,30.9,26.0,30.15,WNW,283,0.0,1.0,82,0.00,,,0.00,weatherlink.com 1.10,2013-03-15 05:37:00,
2013-03-15 01:52:00,31.4,27.0,30.14,WSW,239,0.0,2.0,83,0.00,,,0.00,weatherlink.com 1.10,2013-03-15 05:52:00,
2013-03-15 02:07:00,31.6,27.0,30.14,NW,307,0.0,4.0,84,0.00,,,0.00,weatherlink.com 1.10,2013-03-15 06:07:00,
2013-03-15 02:22:00,31.6,28.0,30.13,WSW,252,0.0,3.0,86,0.00,,,0.00,weatherlink.com 1.10,2013-03-15 06:22:00,
2013-03-15 02:37:00,31.6,28.0,30.12,WSW,256,0.0,4.0,87,0.00,,,0.00,weatherlink.com 1.10,2013-03-15 06:37:00,
2013-03-15 02:52:00,31.6,29.0,30.11,SSW,211,1.0,5.0,89,0.00,,,0.00,weatherlink.com 1.10,2013-03-15 06:52:00,
2013-03-15 03:07:00,31.7,29.0,30.11,NW,323,2.0,8.0,90,0.00,,,0.00,weatherlink.com 1.10,2013-03-15 07:07:00,
2013-03-15 03:23:00,31.9,30.0,30.10,SW,233,2.0,5.0,91,0.00,,,0.00,weatherlink.com 1.10,2013-03-15 07:23:00,
2013-03-15 03:38:00,32.0,30.0,30.09,WNW,283,0.0,4.0,91,0.00,,,0.00,weatherlink.com 1.10,2013-03-15 07:38:00,
2013-03-15 03:53:00,31.6,29.0,30.09,West,263,1.0,2.0,91,0.00,,,0.00,weatherlink.com 1.10,2013-03-15 07:53:00,
2013-03-15 04:08:00,31.2,29.0,30.09,WSW,255,1.0,2.0,92,0.00,,,0.00,weatherlink.com 1.10,2013-03-15 08:08:00,
2013-03-15 04:23:00,30.9,29.0,30.08,WNW,283,0.0,1.0,93,0.00,,,0.00,weatherlink.com 1.10,2013-03-15 08:23:00,
2013-03-15 04:38:00,30.8,29.0,30.07,NW,315,1.0,5.0,93,0.00,,,0.00,weatherlink.com 1.10,2013-03-15 08:38:00,
2013-03-15 04:53:00,30.8,29.0,30.06,West,263,0.0,4.0,93,0.00,,,0.00,weatherlink.com 1.10,2013-03-15 08:53:00,
2013-03-15 05:08:00,30.6,29.0,30.06,West,263,1.0,3.0,93,0.00,,,0.00,weatherlink.com 1.10,2013-03-15 09:08:00,
2013-03-15 05:23:00,30.4,29.0,30.05,SSW,203,2.0,3.0,93,0.00,,,0.00,weatherlink.com 1.10,2013-03-15 09:23:00,
2013-03-15 05:38:00,30.5,29.0,30.04,SSW,213,1.0,6.0,93,0.00,,,0.00,weatherlink.com 1.10,2013-03-15 09:38:00,
2013-03-15 05:53:00,30.4,29.0,30.03,SW,232,0.0,2.0,93,0.00,,,0.00,weatherlink.com 1.10,2013-03-15 09:53:00,
2013-03-15 06:08:00,30.3,29.0,30.03,WSW,256,0.0,7.0,93,0.00,,,0.00,weatherlink.com 1.10,2013-03-15 10:08:00,
2013-03-15 06:23:00,30.2,29.0,30.02,West,262,0.0,2.0,94,0.00,,,0.00,weatherlink.com 1.10,2013-03-15 10:23:00,
2013-03-15 06:38:00,30.2,29.0,30.02,West,259,0.0,4.0,94,0.00,,,0.00,weatherlink.com 1.10,2013-03-15 10:38:00,
2013-03-15 06:53:00,30.3,29.0,30.02,West,276,0.0,5.0,94,0.00,,,0.00,weatherlink.com 1.10,2013-03-15 10:53:00,
2013-03-15 07:08:00,30.2,29.0,30.02,SSW,205,1.0,2.0,93,0.00,,,0.00,weatherlink.com 1.10,2013-03-15 11:08:00,
2013-03-15 07:23:00,30.4,29.0,30.02,WNW,283,1.0,4.0,94,0.00,,,0.00,weatherlink.com 1.10,2013-03-15 11:23:00,
2013-03-15 07:38:00,30.3,29.0,30.02,West,274,0.0,2.0,94,0.00,,,0.00,weatherlink.com 1.10,2013-03-15 11:38:00,
2013-03-15 07:53:00,30.3,29.0,30.01,WNW,283,1.0,3.0,94,0.00,,,0.00,weatherlink.com 1.10,2013-03-15 11:53:00,
2013-03-15 08:08:00,30.3,29.0,30.01,West,277,2.0,4.0,94,0.00,,,0.00,weatherlink.com 1.10,2013-03-15 12:08:00,
2013-03-15 08:23:00,30.4,29.0,30.01,West,264,0.0,3.0,94,0.00,,,0.00,weatherlink.com 1.10,2013-03-15 12:23:00,
2013-03-15 08:38:00,30.6,29.0,30.00,WSW,248,0.0,3.0,94,0.00,,,0.00,weatherlink.com 1.10,2013-03-15 12:38:00,
2013-03-15 08:53:00,30.8,29.0,30.00,WNW,290,1.0,5.0,93,0.00,,,0.00,weatherlink.com 1.10,2013-03-15 12:53:00,
2013-03-15 09:08:00,31.2,29.0,29.99,SSW,197,1.0,2.0,93,0.00,,,0.00,weatherlink.com 1.10,2013-03-15 13:08:00,
2013-03-15 09:23:00,31.7,30.0,29.99,West,280,1.0,2.0,92,0.00,,,0.00,weatherlink.com 1.10,2013-03-15 13:23:00,
2013-03-15 09:38:00,32.3,30.0,29.99,WSW,249,1.0,4.0,91,0.00,,,0.00,weatherlink.com 1.10,2013-03-15 13:38:00,
2013-03-15 09:53:00,32.9,31.0,29.99,WSW,247,0.0,3.0,91,0.00,,,0.00,weatherlink.com 1.10,2013-03-15 13:53:00,
2013-03-15 10:08:00,33.4,31.0,29.99,West,271,3.0,4.0,90,0.00,,,0.00,weatherlink.com 1.10,2013-03-15 14:08:00,
2013-03-15 10:23:00,33.7,31.0,29.99,NW,318,0.0,3.0,89,0.00,,,0.00,weatherlink.com 1.10,2013-03-15 14:23:00,
2013-03-15 10:38:00,34.0,31.0,29.99,WSW,243,1.0,4.0,89,0.00,,,0.00,weatherlink.com 1.10,2013-03-15 14:38:00,
2013-03-15 10:54:00,34.8,32.0,30.00,West,274,0.0,3.0,88,0.00,,,0.00,weatherlink.com 1.10,2013-03-15 14:54:00,
2013-03-15 11:09:00,35.1,32.0,29.99,NNW,347,3.0,4.0,87,0.00,,,0.00,weatherlink.com 1.10,2013-03-15 15:09:00,
2013-03-15 11:39:00,36.0,33.0,29.98,West,259,2.0,4.0,87,0.00,,,0.00,weatherlink.com 1.10,2013-03-15 15:39:00,
2013-03-15 11:54:00,36.6,33.0,29.98,West,259,3.0,5.0,85,0.00,,,0.00,weatherlink.com 1.10,2013-03-15 15:54:00,
2013-03-15 12:24:00,37.8,33.0,29.97,NNW,340,1.0,5.0,83,0.00,,,0.00,weatherlink.com 1.10,2013-03-15 16:24:00,
2013-03-15 12:39:00,37.9,33.0,29.97,NNW,330,2.0,7.0,82,0.00,,,0.00,weatherlink.com 1.10,2013-03-15 16:39:00,
2013-03-15 12:54:00,38.3,33.0,29.96,NNW,335,1.0,4.0,81,0.00,,,0.00,weatherlink.com 1.10,2013-03-15 16:54:00,
2013-03-15 13:09:00,38.6,33.0,29.96,NNW,328,2.0,5.0,81,0.00,,,0.00,weatherlink.com 1.10,2013-03-15 17:09:00,
2013-03-15 13:24:00,39.7,34.0,29.96,WSW,245,4.0,4.0,80,0.00,,,0.00,weatherlink.com 1.10,2013-03-15 17:24:00,
2013-03-15 13:39:00,40.1,34.0,29.96,WSW,250,2.0,3.0,79,0.00,,,0.00,weatherlink.com 1.10,2013-03-15 17:39:00,
2013-03-15 13:54:00,40.2,34.0,29.96,NNW,348,1.0,7.0,79,0.00,,,0.00,weatherlink.com 1.10,2013-03-15 17:54:00,
2013-03-15 14:09:00,41.0,34.0,29.96,North,8,2.0,5.0,76,0.00,,,0.00,weatherlink.com 1.10,2013-03-15 18:09:00,
2013-03-15 14:24:00,41.2,35.0,29.95,WSW,256,2.0,4.0,77,0.00,,,0.00,weatherlink.com 1.10,2013-03-15 18:24:00,
2013-03-15 14:39:00,41.0,34.0,29.95,WSW,250,2.0,3.0,76,0.00,,,0.00,weatherlink.com 1.10,2013-03-15 18:39:00,
2013-03-15 14:54:00,41.3,34.0,29.95,NW,307,1.0,3.0,75,0.00,,,0.00,weatherlink.com 1.10,2013-03-15 18:54:00,
2013-03-15 15:09:00,41.5,34.0,29.94,SSW,198,2.0,4.0,74,0.00,,,0.00,weatherlink.com 1.10,2013-03-15 19:09:00,
2013-03-15 15:24:00,41.6,34.0,29.93,West,259,1.0,4.0,75,0.00,,,0.00,weatherlink.com 1.10,2013-03-15 19:24:00,
2013-03-15 15:39:00,41.5,34.0,29.93,NW,316,1.0,4.0,75,0.00,,,0.00,weatherlink.com 1.10,2013-03-15 19:39:00,
2013-03-15 15:54:00,41.5,34.0,29.93,North,3,3.0,3.0,76,0.00,,,0.00,weatherlink.com 1.10,2013-03-15 19:54:00,
2013-03-15 16:09:00,41.2,35.0,29.93,NNW,338,1.0,4.0,77,0.00,,,0.00,weatherlink.com 1.10,2013-03-15 20:09:00,
2013-03-15 16:24:00,40.6,35.0,29.93,WNW,288,1.0,4.0,81,0.00,,,0.00,weatherlink.com 1.10,2013-03-15 20:24:00,
2013-03-15 16:39:00,40.2,36.0,29.93,NW,323,0.0,1.0,84,0.00,,,0.00,weatherlink.com 1.10,2013-03-15 20:39:00,
2013-03-15 16:54:00,39.9,36.0,29.92,NW,326,0.0,2.0,84,0.00,,,0.00,weatherlink.com 1.10,2013-03-15 20:54:00,
2013-03-15 17:09:00,39.7,36.0,29.92,NW,307,0.0,2.0,86,0.01,,,0.01,weatherlink.com 1.10,2013-03-15 21:09:00,
2013-03-15 17:24:00,39.4,36.0,29.92,NW,309,1.0,2.0,88,0.01,,,0.01,weatherlink.com 1.10,2013-03-15 21:24:00,
2013-03-15 17:39:00,38.6,36.0,29.92,NNW,345,0.0,2.0,89,0.01,,,0.01,weatherlink.com 1.10,2013-03-15 21:39:00,
2013-03-15 17:54:00,38.1,36.0,29.92,NNW,335,0.0,1.0,91,0.02,,,0.02,weatherlink.com 1.10,2013-03-15 21:54:00,
2013-03-15 18:09:00,37.7,36.0,29.92,NNE,12,1.0,1.0,92,0.01,,,0.02,weatherlink.com 1.10,2013-03-15 22:09:00,
2013-03-15 18:24:00,37.1,35.0,29.92,NNE,12,0.0,1.0,92,0.01,,,0.02,weatherlink.com 1.10,2013-03-15 22:24:00,
2013-03-15 18:39:00,36.4,35.0,29.92,NNW,345,1.0,1.0,93,0.03,,,0.04,weatherlink.com 1.10,2013-03-15 22:39:00,
2013-03-15 18:54:00,35.9,34.0,29.92,NW,322,0.0,1.0,94,0.03,,,0.05,weatherlink.com 1.10,2013-03-15 22:54:00,
2013-03-15 19:09:00,35.4,34.0,29.92,NW,322,0.0,1.0,94,0.04,,,0.06,weatherlink.com 1.10,2013-03-15 23:09:00,
2013-03-15 19:24:00,34.9,33.0,29.91,NW,322,0.0,0.0,94,0.03,,,0.06,weatherlink.com 1.10,2013-03-15 23:24:00,
2013-03-15 19:39:00,34.4,33.0,29.91,NW,322,0.0,0.0,95,0.03,,,0.07,weatherlink.com 1.10,2013-03-15 23:39:00,
2013-03-15 19:54:00,34.0,33.0,29.90,NW,322,0.0,0.0,95,0.02,,,0.07,weatherlink.com 1.10,2013-03-15 23:54:00,
2013-03-15 20:10:00,33.8,33.0,29.90,NW,323,0.0,0.0,95,0.02,,,0.08,weatherlink.com 1.10,2013-03-16 00:10:00,
2013-03-15 20:25:00,33.7,33.0,29.90,NW,322,0.0,0.0,96,0.02,,,0.08,weatherlink.com 1.10,2013-03-16 00:25:00,
2013-03-15 20:40:00,33.7,33.0,29.91,NW,322,0.0,0.0,96,0.01,,,0.08,weatherlink.com 1.10,2013-03-16 00:40:00,
2013-03-15 20:55:00,33.5,33.0,29.90,NW,322,0.0,0.0,96,0.01,,,0.08,weatherlink.com 1.10,2013-03-16 00:55:00,
2013-03-15 21:10:00,33.5,33.0,29.89,NW,322,0.0,0.0,96,0.01,,,0.09,weatherlink.com 1.10,2013-03-16 01:10:00,
2013-03-15 21:25:00,33.7,33.0,29.89,NW,322,0.0,0.0,96,0.01,,,0.09,weatherlink.com 1.10,2013-03-16 01:25:00,
2013-03-15 21:39:00,33.9,33.0,29.90,NW,322,0.0,0.0,97,0.01,,,0.09,weatherlink.com 1.10,2013-03-16 01:39:00,
2013-03-15 21:55:00,34.0,33.0,29.89,ESE,113,0.0,1.0,97,0.01,,,0.09,weatherlink.com 1.10,2013-03-16 01:55:00,
2013-03-15 22:10:00,34.1,33.0,29.88,North,359,0.0,2.0,97,0.01,,,0.10,weatherlink.com 1.10,2013-03-16 02:10:00,
2013-03-15 22:25:00,34.4,34.0,29.88,NW,309,0.0,1.0,97,0.01,,,0.10,weatherlink.com 1.10,2013-03-16 02:25:00,
2013-03-15 22:40:00,34.6,34.0,29.88,SE,133,0.0,1.0,97,0.01,,,0.10,weatherlink.com 1.10,2013-03-16 02:40:00,
2013-03-15 22:55:00,34.7,34.0,29.87,ESE,112,0.0,2.0,97,0.02,,,0.11,weatherlink.com 1.10,2013-03-16 02:55:00,
2013-03-15 23:10:00,34.9,34.0,29.89,SSW,207,0.0,2.0,97,0.01,,,0.11,weatherlink.com 1.10,2013-03-16 03:10:00,
2013-03-15 23:25:00,34.9,34.0,29.89,SSW,207,0.0,0.0,97,0.01,,,0.11,weatherlink.com 1.10,2013-03-16 03:25:00,
2013-03-15 23:40:00,34.5,34.0,29.88,SSW,207,0.0,0.0,97,0.02,,,0.12,weatherlink.com 1.10,2013-03-16 03:40:00,
2013-03-15 23:55:00,34.3,34.0,29.88,SSW,207,0.0,0.0,97,0.01,,,0.12,weatherlink.com 1.10,2013-03-16 03:55:00,